Location: Hains Lake
(37.8540°N, 99.8578°W)
Time: 08:49:56
(UTC+00:00)

Vanguard 1 - Pass Details

Date: 01 December 2021
Orbit: 652 x 3830 km, 34.2° (Epoch: 24 January)

Event Time Altitude Azimuth Distance (km) Brightness Sun altitude
Exits shadow 08:55:44 69° 118° (ESE) 3,513 12.5 -54.6°
Drops below altitude 10° 09:09:41 10° 89° (E) 5,190 14.2 -51.9°
Sets 09:12:53 0° 88° (E) 5,862 14.6 -51.3°
